Regional Weather Roundup
Issued by NWS

Home | Current Version | Previous Version | Text Only | Print | Product List | Glossary On
Versions: 1 2 3 4 5 6 7 8 9 10 11 12 13 14 15 16 17 18 19 20 21 22 23 24 25 26 27 28 29 30 31 32 33 34 35 36 37 38 39 40 41 42 43 44 45 46 47 48 49 50
000
ASUS45 KABQ 250710
RWRNM
WEATHER ROUNDUP FOR NEW MEXICO
NATIONAL WEATHER SERVICE ALBUQUERQUE NM
100 AM MDT SAT APR 25 2015

NOTE: "FAIR" MEANS FEW OR NO CLOUDS BELOW 12,000 FEET AGL WITH NO
       SIGNIFICANT WEATHER OR OBSTRUCTIONS TO VISION.

      THIS PRODUCT IS RELEASED AS TWO VERSIONS.  ONE VERSION NEAR
      THE TOP OF THE HOUR CONTAINING PRELIMINARY DATA FROM ALBUQUERQUE
      AND OTHER STATIONS.  A FINAL VERSION WITH ADDITIONAL DATA IS
      ISSUED ABOUT 10 MINUTES AFTER THE HOUR.

NMZ501-503-504-510>518-250800-
NORTHWEST PLATEAU/NORTHCENTRAL MOUNTAINS

CITY           SKY/WX    TMP DP  RH WIND       PRES   REMARKS
FARMINGTON     PTCLDY    44  37  76 E6        29.91S
LOS ALAMOS     PTCLDY    46  31  57 SW3G18    29.99S
SANTA FE       CLEAR     42  28  57 VRB5      29.95F
TAOS           MOCLDY    36  25  64 S5        29.99R WCI  32
ANGEL FIRE     FAIR      34  29  80 CALM      29.97S

$$
NMZ402-403-502-505>509-250800-
WESTCENTRAL MOUNTAINS/SOUTHWEST MOUNTAINS

CITY           SKY/WX    TMP DP  RH WIND       PRES   REMARKS
GALLUP         CLEAR     41  33  73 SW14      30.00S
GRANTS         CLOUDY    43  32  65 NW5       30.02R
SILVER CITY      N/A     39  28  65 NW10      30.04R WCI  32

$$
NMZ407-409-411-412-250800-
SOUTHERN DESERTS

CITY           SKY/WX    TMP DP  RH WIND       PRES   REMARKS
LORDSBURG      FAIR      45  28  53 CALM      29.99S
DEMING         CLEAR     46  28  49 W6        29.99S
LAS CRUCES     CLEAR     50  30  45 W7        29.99S
HOLLOMAN AFB   CLEAR     54  31  42 E5        29.93F
ALAMOGORDO     CLEAR     54  28  37 CALM      29.96S
T OR C         CLEAR     55  30  38 NW6       29.97S

$$
NMZ519>523-250800-
CENTRAL VALLEYS/CENTRAL HIGHLANDS

CITY           SKY/WX    TMP DP  RH WIND       PRES   REMARKS
ALBUQUERQUE    PTCLDY    51  34  52 S6        29.97S
DOUBLE EAGLE   CLEAR     45  33  63 SW15      29.97S
MORIARTY ARPT  FAIR      44  32  62 W10       29.98S
CLINES CORNERS CLEAR     39  29  67 W20       29.93F WCI  29
BELEN          FAIR      48  34  57 SW15      29.97F
SOCORRO        FAIR      55  29  37 NW8       29.96R

$$
NMZ524>526-539-540-250800-
SOUTHCENTRAL MOUNTAINS

CITY           SKY/WX    TMP DP  RH WIND       PRES   REMARKS
RUIDOSO        CLEAR     46  27  46 W14       30.01S

$$
NMZ527>531-250800-
NORTHEAST HIGHLANDS/NORTHEAST PLAINS

CITY           SKY/WX    TMP DP  RH WIND       PRES   REMARKS
LAS VEGAS      PTCLDY    42  28  57 W12       29.89R
RATON          CLEAR     35  25  66 E3        29.82R
CLAYTON        CLEAR     46  25  43 W14       29.75R

$$
NMZ532>537-250800-
EASTCENTRAL PLAINS

CITY           SKY/WX    TMP DP  RH WIND       PRES   REMARKS
TUCUMCARI      CLEAR     56  27  32 W17       29.78S
CANNON AFB     CLEAR     50  32  49 W13       29.83S
CLOVIS AIRPORT CLEAR     54  30  40 W13       29.82S

$$
NMZ028-029-538-250800-
SOUTHEAST PLAINS

CITY           SKY/WX    TMP DP  RH WIND       PRES   REMARKS
ROSWELL        CLEAR     52  33  48 SW10      29.86S
ARTESIA        CLEAR     57  30  35 W14       29.88S
CARLSBAD       CLEAR     56  28  34 W3        29.88R
HOBBS          CLEAR     54  27  35 W10       29.89S


$$


USA.gov is the U.S. government's official web portal to all federal, state and local government web resources and services.